Wind_Speed
31 32 33 34 36 39 39 38 35 28 21 17 17 19 21 21 18 18 20 23 25 26 28 30 33 36 39 41 44 46 48 51 53 55 57 59 62 65 66 67 66 67 68 70 72 73 74 75 77 77 78 78 78 77 74 70 66 62 58 54 51 47 45 46 50 54 55 57 58 59 61 62 62 62
31 32 34 35 36 38 39 39 37 30 22 19 20 22 23 22 20 19 20 22 24 25 27 30 33 35 38 41 44 47 49 51 53 56 58 60 62 64 66 67 68 68 69 70 73 75 76 77 79 81 82 82 83 82 80 75 70 65 61 58 54 51 48 46 50 55 57 58 59 61 61 62 64 64
31 32 34 35 36 37 38 39 38 32 24 20 22 24 25 24 21 20 21 22 24 25 26 29 32 35 39 42 45 47 50 52 55 57 60 62 64 64 65 67 69 69 69 71 74 76 77 79 81 83 85 86 87 86 84 80 74 68 63 60 56 53 50 48 49 54 59 61 62 62 63 63 64 66
31 32 33 35 35 36 38 39 39 35 26 21 22 24 26 27 25 24 24 24 25 25 27 29 32 36 39 43 46 48 51 54 57 60 61 64 66 65 64 67 69 70 70 72 74 77 78 80 82 85 88 90 91 91 89 83 76 70 64 60 57 54 52 50 50 53 59 63 64 65 65 66 66 67
32 33 33 34 35 36 38 39 39 37 31 25 24 26 29 31 29 28 28 27 27 28 28 29 32 36 40 44 47 49 52 56 59 61 63 65 67 66 64 66 70 71 72 73 75 77 79 81 83 87 90 93 95 95 93 87 78 71 65 60 55 53 52 51 51 52 58 64 67 67 68 69 69 68
33 34 34 34 35 36 37 38 39 38 35 32 31 33 35 35 33 32 31 30 29 30 30 30 34 39 42 45 48 50 53 57 60 62 64 66 67 66 65 66 70 73 73 74 76 78 80 82 85 89 92 95 97 99 97 90 81 73 66 59 53 50 50 50 51 52 56 63 69 71 71 72 72 72
33 35 35 35 36 36 37 37 38 39 38 37 38 39 40 38 36 35 34 33 31 31 31 33 38 42 44 46 49 52 56 59 62 63 64 66 67 66 65 67 71 74 75 76 77 79 81 83 86 90 93 96 99 101 100 92 83 75 68 60 53 48 46 48 50 52 55 61 69 73 74 74 75 75
34 35 36 36 37 37 38 38 38 38 39 39 40 41 42 40 39 38 37 35 34 33 33 36 40 44 46 49 52 54 58 61 63 63 64 66 67 66 66 67 71 74 76 77 78 80 82 84 87 91 93 97 101 103 102 95 84 76 69 61 53 47 44 45 48 52 54 59 66 73 77 77 77 78
36 36 36 37 38 38 39 39 39 38 39 39 40 42 42 41 40 39 38 38 38 37 37 38 41 44 47 51 53 56 59 61 62 64 65 66 67 66 66 68 71 75 77 78 79 80 82 84 88 92 94 97 102 105 104 97 86 78 70 61 54 48 44 43 46 50 54 57 63 70 76 79 80 80
38 37 37 38 39 39 40 40 41 41 40 41 41 43 43 42 41 41 41 42 42 42 41 41 41 45 50 52 54 57 60 61 62 64 65 66 67 67 66 68 72 75 78 80 80 81 83 85 89 93 95 98 103 107 107 99 88 79 71 62 54 48 44 41 43 48 52 56 60 66 73 79 81 82
41 40 39 39 40 40 41 41 42 43 43 43 43 44 44 43 43 43 43 44 46 46 46 44 44 47 51 52 54 58 60 61 63 65 65 66 67 67 68 70 73 76 79 81 80 81 84 87 91 94 96 100 105 109 110 103 90 81 72 62 54 49 44 41 40 44 49 54 58 63 69 76 81 83
44 43 42 41 41 42 42 43 44 44 45 45 46 47 47 46 45 45 44 46 48 49 49 48 48 49 50 52 55 58 59 62 65 66 66 66 66 67 69 72 75 78 81 83 82 82 84 89 93 96 98 102 107 111 113 107 93 83 74 63 54 49 45 42 39 40 45 51 56 60 66 72 79 83
47 46 46 44 43 44 44 44 45 46 47 48 48 49 50 49 47 46 46 48 50 51 51 50 49 49 50 53 56 57 59 63 65 65 66 66 67 68 70 73 76 80 82 85 85 85 87 91 96 98 100 104 109 113 116 110 97 86 76 65 55 48 44 42 40 39 41 47 53 58 62 68 75 81
49 49 48 47 46 46 46 47 47 48 49 50 51 51 52 51 49 47 48 50 51 51 52 50 48 48 51 54 56 57 60 64 65 65 65 66 67 70 72 75 78 81 84 86 86 87 90 95 98 100 102 106 110 114 118 113 101 89 79 67 56 48 43 41 41 40 40 42 48 54 59 64 70 77
51 51 50 50 49 49 49 50 50 50 51 52 53 54 54 52 50 50 51 52 53 52 51 49 48 48 50 53 55 58 61 64 65 65 65 66 68 71 74 77 80 83 86 87 88 88 92 96 100 102 104 107 110 115 119 116 105 92 83 71 58 48 42 40 39 40 40 41 44 49 55 61 66 72
54 54 53 53 53 52 52 53 53 53 54 54 55 56 55 54 52 52 53 55 54 50 48 46 46 47 49 51 55 59 62 64 64 65 65 67 69 72 75 79 81 84 87 88 88 90 93 97 100 102 104 107 111 115 120 119 108 95 86 75 62 50 43 39 38 38 39 40 42 44 49 56 62 67
56 56 56 56 56 56 56 56 56 56 57 57 57 57 56 55 54 54 56 56 52 46 43 43 44 46 48 52 56 60 62 63 63 64 66 68 70 73 77 80 82 85 87 88 88 90 94 98 101 102 104 108 111 115 120 120 110 97 88 78 65 54 45 40 38 37 37 38 40 42 45 50 56 62
58 59 59 59 59 59 59 60 60 60 60 60 59 59 57 56 56 57 56 52 46 41 39 40 42 46 49 53 56 59 61 63 63 65 67 69 71 74 78 81 84 86 88 88 88 91 94 98 102 104 105 108 112 115 120 122 112 99 89 80 68 56 48 42 38 36 36 36 38 39 42 45 50 56
61 62 62 62 62 62 62 63 63 62 62 61 60 59 58 57 58 57 52 45 40 39 39 40 43 46 51 55 57 59 61 63 64 66 68 70 73 76 79 82 85 87 89 90 90 91 95 99 103 105 107 109 112 115 120 123 115 100 90 82 70 59 50 44 40 36 34 35 36 37 39 41 45 50
64 65 66 66 65 65 65 65 65 64 63 62 61 60 59 59 58 53 45 40 39 39 39 42 45 48 52 56 58 59 61 63 66 68 70 72 74 76 80 84 86 87 88 90 90 92 96 100 104 106 108 110 113 116 120 124 117 103 91 84 73 62 52 46 41 37 34 33 34 35 37 39 41 45
67 67 68 68 68 67 67 67 66 64 62 61 61 59 57 56 52 46 41 39 39 39 41 43 46 49 54 58 59 60 62 64 66 69 71 72 74 77 82 86 87 87 89 90 90 92 96 101 104 106 109 112 114 117 121 125 120 105 93 86 75 64 55 48 43 39 35 32 31 33 35 37 39 42
68 68 68 68 68 68 68 68 66 62 60 59 58 55 52 50 46 42 41 41 40 40 42 44 47 51 56 59 60 61 63 65 67 70 71 72 75 79 84 86 86 87 90 91 91 93 96 101 103 106 109 113 116 118 122 126 122 107 95 87 78 66 57 50 45 41 37 33 30 30 32 35 37 40
66 66 66 65 66 66 65 65 62 57 54 52 50 47 45 44 43 43 42 41 40 41 43 45 48 54 57 59 60 62 64 66 69 71 72 73 77 81 84 86 86 87 89 90 91 94 97 101 104 106 109 113 116 119 123 127 125 111 96 88 80 69 59 52 46 43 39 35 32 29 29 31 34 37
62 62 60 60 61 61 59 58 53 46 41 41 41 41 42 43 44 45 43 40 40 42 43 46 50 55 58 59 61 63 65 67 70 72 73 75 79 83 85 86 87 88 89 90 91 94 98 102 104 105 109 113 116 119 123 127 126 114 99 90 82 71 61 54 48 45 41 38 34 31 28 28 31 33
58 57 56 55 55 54 51 47 40 31 30 34 35 37 42 44 45 45 43 41 41 43 44 48 52 56 57 59 61 63 66 69 71 73 75 77 81 84 86 87 87 88 89 90 91 94 98 102 103 105 108 112 115 119 123 127 127 116 101 92 84 74 63 55 50 47 43 40 37 33 30 28 28 31
54 53 51 49 49 47 41 33 27 25 29 34 35 38 43 44 43 43 42 42 43 45 46 50 53 55 56 58 61 64 66 69 71 72 75 78 82 85 87 88 87 88 88 89 91 95 99 102 102 104 107 111 115 119 122 126 127 118 104 94 87 77 66 57 50 47 45 42 38 35 32 30 29 29
49 47 46 46 45 41 32 24 23 29 34 35 36 39 43 43 42 42 42 43 45 47 49 52 54 55 56 58 60 63 66 69 71 73 75 79 83 86 88 88 88 88 88 89 92 95 99 101 101 102 106 110 114 118 122 125 127 119 105 96 89 80 69 59 51 47 45 42 40 37 34 32 31 30
43 41 42 41 40 37 31 29 32 39 41 39 38 39 41 43 44 43 44 47 49 50 50 52 54 56 58 59 61 63 67 70 72 74 77 81 84 86 88 88 88 88 88 89 92 96 99 101 101 102 105 108 113 117 121 125 126 119 107 98 92 83 72 62 54 48 45 42 39 37 35 33 31 31
37 36 36 36 37 41 43 45 47 46 43 41 40 40 42 45 45 45 47 49 51 50 50 52 55 58 60 61 62 63 66 70 72 75 78 81 84 86 88 88 88 87 87 89 92 96 99 100 99 101 104 108 112 116 120 124 126 119 107 99 93 86 76 66 58 52 47 43 38 35 33 33 32 31
36 38 42 44 44 44 46 47 48 46 42 43 44 43 43 44 44 45 47 49 49 50 51 53 56 59 61 63 63 64 66 69 71 74 77 81 84 86 88 88 87 87 87 89 92 96 99 99 99 100 103 107 111 115 119 123 124 118 107 99 95 88 78 69 61 55 52 47 42 36 32 31 32 31
35 40 45 45 43 43 43 43 42 42 43 46 46 43 42 42 42 43 46 48 50 52 54 56 58 61 63 64 64 64 65 68 71 74 77 81 84 86 88 88 87 86 87 89 93 96 98 97 98 100 103 107 110 114 118 122 123 117 107 100 96 90 80 70 61 56 54 52 48 42 36 33 32 32
31 39 45 47 48 52 54 51 47 44 44 44 44 44 43 42 41 44 48 52 55 56 57 59 61 63 64 64 62 62 65 68 71 74 77 81 84 86 88 88 87 86 87 89 93 96 97 96 97 100 103 107 110 114 117 121 121 115 106 100 96 91 83 72 62 55 52 52 51 47 41 37 35 34
39 47 54 59 62 62 60 57 54 52 51 49 48 47 45 43 44 48 52 54 56 56 57 59 61 61 60 59 59 61 65 68 70 73 76 80 83 86 87 88 87 86 87 89 93 95 95 95 97 100 103 107 111 113 116 118 119 113 105 99 96 92 85 75 64 55 50 49 50 49 44 38 36 35
43 47 52 59 63 62 58 56 56 55 56 56 55 51 47 46 49 52 54 54 54 55 57 57 55 54 53 54 57 61 64 67 69 72 75 79 82 85 87 87 86 85 87 90 93 94 93 95 97 100 104 108 111 114 115 116 115 110 103 98 95 92 87 78 67 57 50 46 47 49 46 40 35 34
36 43 50 54 57 59 58 56 55 54 55 55 52 48 47 48 51 53 55 55 54 54 54 52 49 49 51 53 57 60 63 65 67 70 75 79 83 86 87 86 84 85 87 91 92 92 93 95 97 100 104 108 111 113 115 116 114 107 100 96 93 91 87 79 70 60 52 47 45 47 47 42 36 32
36 46 49 48 50 54 56 57 56 55 54 52 49 49 52 54 54 54 55 55 53 52 51 49 48 50 52 54 57 60 62 63 66 70 76 81 84 86 86 84 83 84 88 90 91 91 93 95 98 101 104 108 111 113 115 116 113 106 98 94 92 89 86 80 72 63 55 49 46 46 46 44 37 31
43 49 48 47 48 49 51 52 52 51 51 51 52 55 58 58 58 57 55 52 50 50 51 51 51 52 54 57 61 64 64 64 67 73 78 82 84 84 83 82 83 85 87 88 89 90 93 95 98 101 105 108 111 113 115 116 113 105 97 93 90 88 84 78 71 65 59 53 48 46 45 44 39 33
48 54 54 53 51 48 48 50 50 49 49 51 53 55 57 58 60 60 56 53 52 53 55 56 57 58 61 64 67 67 65 66 70 75 79 81 82 82 81 81 83 85 86 87 88 90 93 95 97 101 105 108 111 113 115 116 112 104 96 92 90 87 82 76 69 64 60 56 52 48 44 42 39 35
54 61 59 54 50 49 50 51 49 46 47 49 51 53 54 56 58 58 59 60 60 58 58 59 60 62 63 65 65 64 64 67 72 76 78 80 80 79 79 80 83 84 86 87 87 90 92 95 98 101 104 107 110 112 114 115 112 104 96 91 89 86 82 75 67 62 59 57 55 52 46 41 37 34
50 57 57 53 50 49 47 45 44 46 48 51 55 55 53 53 55 57 59 59 56 54 54 56 58 59 59 60 61 62 65 69 73 75 77 77 77 77 79 81 82 84 86 86 87 90 92 95 98 101 104 107 109 111 113 113 110 102 94 89 86 85 82 75 66 59 55 54 55 54 49 44 38 33
48 52 53 52 48 44 42 43 48 55 58 59 57 53 50 52 54 55 54 52 50 51 53 55 57 58 58 58 60 62 65 70 72 73 73 74 75 77 80 81 82 85 86 86 87 89 92 94 98 101 104 106 108 110 112 112 107 100 93 87 84 82 81 76 67 58 52 50 51 51 50 46 40 34
54 51 52 52 48 46 48 50 54 58 59 56 51 48 51 54 55 54 54 54 55 56 58 60 60 59 57 58 60 63 66 69 70 70 71 73 76 78 80 82 83 85 86 86 87 89 91 94 98 101 103 106 108 109 111 110 105 98 92 86 82 81 80 75 68 59 52 48 48 48 47 45 41 36
60 57 56 55 52 52 54 52 51 52 52 50 49 50 54 56 57 58 59 59 61 61 62 62 59 56 56 58 61 63 65 66 67 69 72 74 77 79 81 83 84 84 85 86 87 89 91 95 98 101 103 105 107 109 110 109 104 97 91 85 81 80 79 75 68 59 52 48 46 45 44 42 39 36
56 56 56 55 54 55 54 52 52 52 52 51 52 54 56 58 59 61 61 62 62 62 61 58 56 54 56 59 61 62 64 66 68 71 73 76 78 80 82 83 83 84 85 86 87 89 92 96 98 101 102 105 107 108 109 107 102 95 90 84 80 79 79 76 69 60 51 46 44 43 42 41 38 35
50 51 53 55 56 57 56 56 57 56 55 55 56 58 59 60 61 61 62 62 62 61 58 56 54 54 56 59 62 64 65 67 70 72 75 77 79 80 80 81 82 83 85 86 88 91 93 96 99 101 102 104 106 107 108 106 100 94 89 84 80 79 78 75 70 62 53 46 43 42 40 39 36 34
Wind_Direction
341 343 347 352 353 352 353 356 356 351 340 332 331 333 338 343 339 329 322 323 324 324 329 334 336 336 337 338 341 343 347 350 352 354 357 359 0 0 360 359 358 358 358 358 358 356 354 353 352 350 348 346 344 342 339 336 330 324 318 312 306 298 288 275 263 256 251 247 244 241 238 236 236 236
337 340 344 349 352 351 351 353 354 351 342 333 334 338 339 340 338 330 319 314 316 318 323 329 331 332 333 334 336 339 342 345 347 349 351 355 357 358 357 356 355 355 355 356 356 355 354 353 352 350 348 346 344 342 340 336 331 325 318 312 305 297 289 278 266 256 251 247 245 242 239 236 234 234
335 337 341 345 348 349 349 350 351 350 342 333 333 337 339 337 333 329 320 313 312 314 319 325 328 329 331 332 333 335 338 340 343 345 348 351 354 355 355 353 352 352 353 354 354 354 353 352 351 350 348 346 344 342 340 337 332 326 319 312 304 297 288 279 268 258 251 247 244 242 240 237 234 233
333 335 339 341 343 345 346 347 349 348 342 332 330 333 336 336 332 328 323 316 313 314 317 322 325 327 329 330 331 333 335 337 340 343 345 347 350 352 353 351 350 350 351 352 353 352 352 351 350 349 347 346 344 342 340 337 333 327 321 313 305 296 288 279 269 259 250 246 243 241 240 238 236 233
330 332 336 337 338 340 342 344 347 348 343 334 330 330 332 333 330 329 326 321 315 314 315 319 322 325 327 328 328 330 333 336 338 341 343 345 347 349 350 349 348 348 349 351 351 351 351 350 350 349 347 346 344 343 341 338 334 329 323 315 306 296 287 278 269 260 251 245 242 240 238 238 236 234
327 328 332 333 333 335 338 340 342 344 343 337 332 330 329 329 328 328 329 326 319 315 313 315 318 322 324 325 326 328 331 334 337 339 342 343 344 345 347 347 347 346 348 349 349 349 350 349 349 348 347 346 344 343 342 339 335 330 325 318 308 297 287 277 269 261 252 245 241 239 238 236 236 235
324 325 328 329 329 330 333 336 337 339 340 337 334 331 328 327 328 329 330 328 322 316 312 314 317 319 320 322 323 326 329 333 336 338 340 340 341 343 345 345 345 345 346 347 348 348 348 348 348 347 347 345 344 344 343 340 336 331 326 320 311 300 287 277 269 261 253 246 241 239 237 235 234 234
321 322 325 325 325 327 329 331 333 334 335 335 333 332 329 327 328 330 329 326 323 318 313 313 315 316 317 319 321 324 329 333 335 337 338 338 339 342 343 343 343 343 344 346 346 347 347 347 346 347 347 345 344 345 344 341 337 333 329 322 314 304 290 278 269 261 254 248 242 238 236 235 234 233
318 320 322 322 321 323 325 327 329 330 331 331 331 331 330 328 328 329 327 325 323 319 315 313 312 312 314 317 319 324 330 333 335 335 336 337 339 341 341 341 341 342 343 344 345 345 346 346 345 346 346 345 345 345 345 343 339 336 332 326 318 308 295 280 269 262 256 249 244 240 237 235 234 233
316 317 318 318 318 320 322 324 325 326 327 328 329 329 330 329 328 328 327 326 325 322 318 314 310 309 312 315 318 325 330 333 334 335 336 337 338 339 340 340 340 341 341 343 344 344 345 345 345 346 346 345 345 346 346 345 341 338 335 329 321 312 301 286 272 262 257 251 246 242 238 236 235 234
313 314 315 315 315 317 318 320 322 323 324 325 326 327 327 327 327 326 327 328 327 325 321 315 310 309 311 313 318 325 330 333 334 335 336 336 337 338 339 339 339 340 340 342 343 343 344 344 344 345 345 345 346 347 348 346 343 340 337 332 324 316 306 294 278 265 258 253 248 244 240 237 236 234
310 311 312 312 313 314 315 317 319 320 321 321 322 323 323 324 325 324 325 326 326 325 321 316 313 310 311 314 320 326 331 332 334 335 335 335 336 338 339 339 338 338 339 341 341 342 343 343 344 346 345 345 346 348 349 348 345 342 340 335 328 318 308 299 286 271 260 254 250 246 242 239 237 235
308 309 309 309 310 310 312 314 315 317 318 317 318 319 320 321 322 321 321 323 324 323 320 317 314 311 313 317 322 327 331 332 334 334 334 335 336 338 339 339 338 338 338 339 340 341 343 343 344 345 345 345 347 349 349 349 346 344 341 338 331 322 310 300 292 280 267 257 251 247 244 240 239 237
305 306 306 306 307 308 309 310 312 313 314 314 315 316 317 318 318 317 317 318 320 321 319 316 313 312 315 320 324 330 333 333 333 334 334 335 336 337 338 338 338 337 337 338 339 341 343 343 344 345 344 345 347 349 349 349 347 345 343 340 335 326 314 303 294 286 276 264 254 249 245 242 240 238
302 303 303 304 305 306 307 308 309 310 311 311 312 313 315 316 315 314 314 316 318 319 317 314 312 314 319 323 327 332 333 332 332 333 334 334 336 337 337 337 337 336 336 337 338 340 342 342 343 344 344 345 347 349 350 349 348 346 344 342 338 330 319 308 298 289 282 273 262 254 248 244 241 239
299 300 300 301 303 304 305 306 306 307 308 309 310 311 313 314 313 312 312 314 317 317 316 314 314 317 322 326 330 332 332 331 332 333 334 335 336 337 337 336 336 335 335 336 337 339 341 342 343 343 343 345 347 349 350 350 348 346 345 343 340 334 324 313 303 294 286 279 271 262 254 247 244 241
296 297 298 299 300 302 303 303 304 305 305 306 307 309 311 312 312 311 312 314 316 316 315 315 316 320 324 328 331 332 331 331 333 333 334 335 336 336 336 335 335 334 334 335 336 338 340 341 342 342 342 344 347 349 350 350 348 346 345 343 340 336 328 318 308 300 291 284 277 270 262 254 248 244
294 295 295 296 298 299 300 301 302 303 303 304 305 307 309 311 310 310 311 313 313 314 315 316 318 321 326 329 331 331 331 332 333 334 335 335 335 335 335 334 334 334 333 334 336 338 340 340 340 341 342 344 347 349 350 350 349 347 345 343 340 337 331 323 314 305 296 288 281 274 268 261 254 248
292 293 293 294 295 297 298 298 299 300 301 302 304 306 308 309 308 308 310 311 311 311 313 316 319 322 326 329 330 330 330 332 334 334 335 335 334 334 333 333 333 333 332 333 335 338 339 339 339 340 342 344 346 348 350 350 349 347 346 344 341 338 334 327 320 312 301 292 285 277 271 265 259 253
290 290 291 292 294 295 295 296 297 298 299 300 302 304 306 307 306 307 308 308 307 309 311 315 318 321 324 328 329 329 330 332 334 334 334 334 333 332 331 331 332 331 331 332 334 337 338 339 339 339 341 344 346 348 350 350 349 347 346 345 342 339 336 330 324 318 308 297 288 281 274 268 262 257
288 289 289 291 292 293 293 294 295 296 298 299 301 303 304 305 305 305 305 304 303 305 309 313 316 319 322 326 327 328 330 332 333 333 333 332 332 331 330 330 331 330 330 331 333 336 338 338 338 339 341 343 345 347 349 350 350 348 347 346 343 340 337 333 329 323 315 305 294 284 277 271 265 260
287 288 288 289 290 291 292 293 294 296 297 298 300 302 303 303 302 301 300 299 299 301 305 310 315 318 320 324 326 327 329 331 331 331 331 330 330 329 329 330 329 329 329 330 333 336 337 337 338 339 341 342 344 347 348 350 349 348 347 346 344 341 338 335 332 327 321 313 303 291 281 274 268 264
287 287 288 289 290 291 292 293 295 298 298 297 299 302 302 300 298 297 297 296 295 297 303 309 314 317 320 323 325 326 328 329 329 329 328 328 328 328 329 328 328 327 328 329 332 335 336 336 337 339 341 343 344 346 348 349 349 348 347 346 344 341 339 336 334 330 324 318 311 300 288 279 273 268
285 286 288 289 290 291 293 295 297 300 300 300 303 303 299 295 295 295 294 292 293 297 302 308 313 316 319 322 324 325 327 327 327 326 326 326 326 327 327 327 326 326 327 328 331 334 335 336 337 339 341 343 344 346 347 348 348 347 346 346 345 343 340 338 335 332 327 321 316 308 298 287 278 272
284 286 288 289 290 291 293 295 298 301 304 306 306 300 294 293 294 295 292 290 292 296 301 306 311 314 318 321 322 323 325 325 324 324 325 325 325 325 326 326 325 325 326 327 330 333 334 335 337 339 341 342 344 345 346 347 347 346 346 346 346 344 341 339 336 333 329 324 320 314 306 297 286 277
284 287 289 289 289 289 288 290 295 301 305 306 300 292 290 292 293 292 291 291 294 297 301 305 310 313 316 319 320 321 322 322 322 323 323 323 323 323 324 325 325 324 325 327 329 332 333 334 337 339 341 342 343 344 346 346 346 346 345 346 346 344 342 340 338 335 331 327 323 318 312 305 296 285
286 288 290 289 286 283 279 277 284 297 304 304 300 294 292 294 294 292 292 294 296 298 302 305 308 311 313 315 317 318 319 320 320 320 320 320 321 321 322 324 324 323 324 326 329 331 332 334 336 339 341 342 343 344 345 345 346 345 344 345 346 345 342 340 339 337 334 330 326 322 316 310 303 294
288 289 289 288 283 277 275 273 281 295 299 298 298 298 296 296 295 291 292 297 297 298 302 306 308 310 311 313 314 316 317 317 317 318 318 318 319 320 321 322 323 322 323 325 328 330 331 333 336 338 340 341 342 343 344 345 345 345 344 344 345 344 343 341 340 339 337 333 329 324 319 313 306 298
288 287 288 289 283 280 281 280 282 291 295 291 291 293 292 294 293 290 292 296 296 297 302 305 307 307 308 311 313 313 313 314 314 315 316 316 317 318 319 321 321 321 322 325 327 329 330 332 335 337 340 341 342 343 343 344 344 344 344 344 344 344 343 342 341 340 339 336 333 328 322 315 308 300
283 283 287 290 288 288 291 289 283 282 284 288 289 287 288 292 290 287 290 293 292 294 299 302 303 304 306 309 311 311 311 312 313 313 314 314 315 316 317 319 320 320 321 324 326 328 330 332 334 337 339 340 341 342 343 344 344 344 343 343 344 344 344 342 341 341 340 337 335 332 327 319 310 301
283 286 286 286 289 296 303 304 296 287 284 288 289 286 287 291 287 283 287 291 291 292 296 298 300 301 303 306 308 308 309 310 311 311 312 312 313 314 316 317 318 319 321 323 325 327 329 331 333 336 338 340 341 342 342 343 343 343 343 343 344 344 344 343 342 342 341 338 334 333 332 324 314 303
291 293 288 284 287 293 297 299 299 297 294 293 291 289 289 290 288 285 287 289 291 293 294 294 296 298 300 303 304 305 307 308 308 309 309 309 310 312 314 315 316 317 320 322 324 326 328 330 333 336 338 339 340 341 342 343 343 343 342 343 343 343 343 343 343 343 343 339 333 331 331 326 317 306
285 285 281 281 284 288 290 289 290 292 294 293 291 291 289 288 290 292 292 291 293 294 293 293 295 297 300 302 303 304 305 306 306 307 307 307 308 310 312 313 315 316 319 321 323 325 327 330 333 335 337 338 339 340 342 343 343 342 342 343 343 343 343 343 343 344 345 342 334 329 329 327 319 309
275 277 274 275 279 282 284 284 284 287 291 292 291 290 287 286 291 295 295 295 294 294 293 294 295 298 301 302 302 303 303 303 304 306 306 306 307 308 310 312 313 316 319 321 323 325 327 330 333 335 336 337 338 339 341 342 343 342 342 342 344 343 342 342 342 343 346 345 338 331 328 328 323 313
268 279 276 274 276 279 281 282 281 283 286 288 288 285 284 286 291 294 294 294 293 292 293 295 297 299 301 301 300 300 301 302 304 305 305 305 305 307 309 310 312 315 318 321 323 325 327 330 333 335 335 336 337 338 340 341 342 342 342 342 344 344 343 342 341 342 344 346 343 335 330 329 326 317
272 284 281 276 277 279 282 281 280 281 283 281 276 276 280 285 289 292 294 294 291 288 291 295 297 297 298 297 297 298 300 303 305 305 303 303 304 306 307 309 311 315 318 321 323 325 327 330 333 334 335 335 336 338 339 341 341 341 342 342 344 344 344 342 341 341 343 345 346 341 334 330 327 320
274 279 279 280 282 284 284 282 280 280 278 273 270 274 280 284 287 290 293 294 291 287 289 293 295 294 294 295 296 299 302 304 304 303 302 302 303 304 305 308 311 315 318 321 323 325 328 330 332 333 334 334 335 337 338 340 341 341 342 342 344 345 344 343 341 341 341 343 346 345 339 332 328 322
272 274 277 281 283 285 286 287 286 279 271 267 270 276 280 283 286 288 290 292 292 290 289 290 291 291 291 293 296 300 302 303 302 301 301 302 302 303 304 308 311 315 319 321 322 325 328 330 331 332 333 334 335 336 337 339 341 341 342 343 343 344 345 344 342 341 341 342 343 345 342 336 328 323
271 271 275 280 282 283 284 286 282 271 263 264 270 275 278 280 283 287 290 292 293 292 291 291 291 292 293 295 297 299 300 300 300 300 300 300 300 301 304 308 312 315 318 320 322 325 328 329 330 331 332 333 334 335 337 338 340 341 342 343 343 344 344 344 343 342 342 341 341 342 342 338 331 323
271 268 271 277 282 283 283 278 267 255 255 265 272 275 277 279 283 287 290 291 291 291 292 293 294 296 297 297 297 297 297 297 297 298 298 298 299 301 305 308 312 315 318 320 322 325 327 328 329 330 331 332 333 334 336 338 340 341 342 343 343 343 343 344 343 343 342 341 340 338 338 338 333 325
275 272 272 275 277 274 268 262 255 253 258 266 271 273 277 281 284 287 287 288 289 290 292 294 296 297 297 295 293 293 294 294 295 295 296 297 299 302 305 309 312 315 317 319 322 324 326 327 328 329 330 331 332 333 335 337 339 340 341 342 343 343 343 343 343 343 342 342 340 337 336 335 332 327
265 268 272 272 269 262 259 259 258 259 261 264 266 271 277 281 283 284 285 287 290 291 292 294 295 296 294 292 291 291 292 292 293 294 294 296 299 302 306 309 312 314 316 319 322 324 325 326 327 329 330 331 332 333 335 337 339 340 341 342 343 343 343 343 343 342 342 342 341 338 335 333 331 326
256 260 267 267 261 255 256 261 263 262 262 262 264 269 275 278 280 282 284 287 290 291 291 292 293 293 291 290 289 289 290 291 292 293 294 297 300 303 306 309 311 314 316 319 321 323 324 325 327 328 329 330 331 332 334 336 338 340 341 342 343 343 343 342 342 342 342 342 342 339 336 332 329 325
249 251 256 256 253 250 252 259 263 263 263 264 266 269 273 276 279 282 285 287 289 290 291 291 291 290 289 287 287 288 289 289 290 292 294 297 301 304 307 309 311 314 316 318 320 322 324 325 326 327 328 329 330 332 334 336 338 339 340 342 343 344 343 342 342 342 342 342 342 340 337 333 329 324
243 245 246 246 246 246 251 260 264 263 262 265 268 270 273 276 278 281 284 286 287 289 289 290 289 288 286 285 286 286 287 288 290 293 296 300 303 306 308 310 311 314 315 317 320 322 323 324 325 326 327 328 329 331 333 335 337 339 340 342 343 344 344 342 341 341 341 341 341 341 338 334 328 323
Height
10979 10977 10976 10974 10972 10970 10968 10966 10964 10962 10961 10959 10958 10956 10954 10952 10950 10948 10946 10944 10941 10939 10936 10933 10931 10928 10926 10923 10921 10917 10914 10911 10908 10906 10903 10900 10897 10893 10889 10886 10883 10880 10877 10873 10869 10866 10861 10857 10851 10846 10841 10837 10832 10828 10824 10819 10814 10809 10806 10803 10802 10800 10799 10798 10797 10797 10797 10798 10799 10801 10802 10804 10807 10809
10977 10975 10974 10972 10970 10968 10966 10964 10962 10960 10959 10957 10955 10953 10951 10949 10947 10946 10943 10941 10938 10936 10933 10930 10928 10925 10923 10920 10918 10915 10912 10909 10906 10903 10900 10897 10894 10890 10886 10883 10880 10877 10873 10869 10865 10861 10856 10851 10846 10840 10835 10830 10826 10821 10816 10811 10805 10800 10795 10791 10789 10787 10787 10786 10785 10785 10785 10786 10787 10789 10791 10793 10795 10798
10975 10973 10971 10969 10968 10966 10964 10962 10960 10958 10956 10955 10953 10951 10949 10947 10945 10943 10940 10938 10935 10932 10929 10927 10924 10922 10920 10917 10915 10912 10909 10906 10903 10901 10897 10893 10890 10886 10883 10880 10877 10873 10869 10865 10860 10855 10850 10845 10840 10835 10830 10825 10820 10814 10808 10802 10796 10790 10785 10780 10776 10774 10773 10773 10772 10773 10774 10774 10775 10777 10780 10782 10784 10786
10973 10971 10970 10967 10965 10963 10961 10959 10956 10954 10953 10952 10950 10949 10947 10945 10943 10940 10937 10934 10931 10929 10926 10924 10921 10919 10916 10914 10911 10909 10906 10903 10900 10897 10893 10889 10886 10883 10880 10877 10874 10870 10866 10861 10856 10850 10845 10840 10835 10829 10824 10818 10812 10806 10800 10793 10787 10780 10774 10769 10764 10760 10759 10759 10759 10760 10761 10762 10763 10765 10767 10769 10772 10774
10971 10969 10968 10966 10963 10961 10958 10955 10953 10951 10949 10948 10947 10946 10944 10942 10940 10938 10935 10931 10928 10925 10923 10921 10918 10916 10913 10910 10908 10905 10902 10899 10896 10892 10888 10884 10881 10879 10877 10874 10870 10866 10861 10856 10851 10846 10840 10835 10829 10823 10817 10811 10804 10797 10789 10782 10775 10769 10763 10757 10752 10748 10745 10744 10744 10746 10747 10748 10750 10752 10753 10756 10759 10762
10969 10967 10966 10964 10961 10958 10956 10953 10950 10948 10946 10944 10943 10942 10940 10939 10937 10934 10932 10928 10925 10922 10919 10917 10915 10912 10910 10907 10904 10901 10899 10896 10892 10888 10884 10880 10877 10875 10872 10869 10865 10860 10857 10852 10847 10841 10835 10829 10823 10817 10811 10804 10796 10788 10779 10771 10763 10756 10750 10744 10739 10734 10731 10730 10730 10731 10733 10734 10736 10738 10740 10743 10746 10750
10966 10964 10963 10961 10959 10956 10953 10951 10948 10946 10944 10942 10939 10937 10936 10934 10932 10929 10926 10924 10922 10919 10916 10913 10910 10907 10905 10903 10900 10897 10894 10891 10887 10883 10879 10876 10873 10871 10867 10864 10859 10855 10851 10846 10841 10835 10829 10823 10817 10811 10805 10798 10790 10781 10771 10761 10752 10744 10737 10730 10725 10721 10718 10716 10715 10716 10718 10720 10722 10724 10727 10730 10733 10736
10963 10961 10959 10958 10955 10953 10951 10949 10946 10944 10942 10939 10937 10934 10932 10930 10927 10924 10921 10919 10918 10916 10913 10910 10907 10903 10901 10898 10896 10893 10890 10887 10882 10878 10876 10873 10870 10867 10863 10859 10855 10850 10846 10841 10836 10830 10824 10817 10812 10807 10800 10792 10784 10774 10763 10752 10742 10733 10725 10718 10713 10709 10706 10703 10702 10702 10704 10706 10708 10711 10714 10717 10720 10723
10959 10958 10956 10954 10952 10950 10948 10946 10944 10941 10939 10936 10934 10931 10928 10925 10923 10920 10918 10916 10914 10912 10910 10907 10904 10900 10897 10894 10892 10889 10886 10882 10878 10874 10871 10869 10866 10862 10859 10854 10850 10845 10840 10836 10831 10826 10820 10813 10807 10801 10794 10787 10778 10768 10756 10744 10733 10723 10714 10706 10700 10696 10694 10692 10690 10689 10690 10692 10694 10698 10701 10704 10707 10710
10956 10955 10953 10951 10948 10947 10945 10943 10940 10938 10935 10932 10929 10927 10924 10921 10919 10917 10915 10913 10910 10908 10906 10903 10901 10897 10894 10891 10888 10885 10882 10878 10874 10871 10868 10864 10861 10858 10854 10850 10846 10840 10834 10830 10825 10820 10815 10809 10803 10795 10788 10781 10772 10761 10749 10736 10724 10714 10704 10696 10689 10685 10682 10680 10679 10678 10678 10680 10682 10685 10689 10692 10695 10698
10951 10950 10949 10947 10945 10943 10941 10939 10937 10934 10931 10928 10925 10923 10920 10918 10916 10913 10912 10909 10906 10903 10901 10898 10896 10894 10890 10888 10885 10881 10877 10873 10869 10866 10863 10860 10857 10852 10848 10843 10839 10834 10829 10825 10821 10816 10809 10803 10797 10789 10782 10773 10764 10753 10741 10728 10716 10705 10696 10687 10680 10675 10671 10669 10669 10668 10668 10669 10670 10673 10676 10680 10683 10686
10946 10945 10944 10942 10941 10939 10937 10935 10932 10930 10927 10924 10922 10919 10916 10914 10912 10909 10907 10904 10901 10898 10896 10893 10891 10889 10886 10884 10881 10878 10873 10868 10864 10861 10858 10855 10852 10848 10843 10838 10831 10826 10822 10817 10814 10811 10804 10796 10789 10781 10773 10764 10754 10742 10731 10720 10709 10698 10689 10681 10673 10666 10662 10660 10659 10658 10658 10659 10659 10661 10664 10667 10670 10674
10941 10940 10938 10937 10936 10934 10932 10930 10928 10926 10923 10920 10918 10916 10913 10910 10907 10904 10902 10899 10897 10894 10891 10888 10886 10884 10882 10880 10877 10873 10869 10864 10860 10857 10853 10849 10846 10841 10837 10833 10826 10820 10814 10809 10804 10800 10794 10786 10779 10772 10765 10756 10745 10733 10722 10712 10702 10692 10682 10674 10667 10660 10655 10651 10649 10649 10648 10649 10649 10650 10652 10654 10658 10661
10936 10935 10933 10931 10930 10929 10927 10925 10923 10921 10919 10916 10914 10912 10910 10907 10904 10901 10898 10895 10893 10890 10887 10884 10882 10880 10877 10875 10871 10868 10865 10860 10856 10852 10848 10844 10839 10834 10829 10825 10820 10813 10807 10802 10796 10791 10783 10775 10769 10762 10755 10747 10737 10726 10715 10704 10695 10686 10677 10669 10661 10655 10649 10645 10642 10640 10639 10639 10639 10640 10641 10643 10646 10649
10930 10929 10927 10925 10924 10923 10921 10919 10917 10916 10914 10912 10909 10907 10905 10903 10900 10897 10894 10891 10888 10886 10882 10879 10877 10875 10873 10870 10866 10863 10860 10856 10851 10847 10843 10838 10833 10828 10823 10818 10814 10807 10800 10795 10789 10783 10777 10769 10762 10755 10748 10740 10731 10721 10709 10697 10686 10677 10669 10662 10656 10649 10644 10639 10636 10633 10631 10630 10630 10631 10632 10633 10635 10638
10924 10923 10921 10919 10918 10917 10915 10913 10911 10910 10908 10906 10904 10902 10899 10897 10895 10892 10889 10886 10883 10880 10877 10875 10872 10870 10868 10866 10862 10858 10855 10851 10847 10842 10838 10833 10828 10823 10818 10813 10808 10802 10796 10790 10784 10778 10771 10763 10756 10750 10743 10735 10726 10715 10703 10690 10679 10670 10662 10655 10649 10643 10637 10633 10629 10626 10624 10623 10622 10622 10623 10624 10625 10627
10919 10917 10915 10913 10912 10911 10909 10907 10905 10904 10902 10900 10898 10896 10894 10892 10889 10887 10884 10881 10878 10875 10873 10870 10868 10865 10863 10860 10857 10854 10850 10846 10842 10838 10833 10828 10823 10818 10813 10808 10803 10797 10791 10787 10780 10773 10766 10758 10751 10746 10740 10731 10721 10710 10698 10686 10674 10664 10656 10648 10642 10636 10631 10627 10623 10620 10617 10615 10614 10614 10614 10615 10616 10618
10913 10911 10909 10907 10906 10905 10903 10900 10899 10897 10895 10894 10892 10890 10889 10887 10884 10881 10878 10875 10873 10871 10869 10867 10863 10860 10857 10855 10852 10849 10845 10841 10837 10833 10828 10823 10818 10814 10809 10804 10798 10792 10785 10781 10776 10769 10761 10753 10746 10740 10734 10725 10715 10705 10694 10682 10671 10660 10651 10643 10636 10630 10625 10621 10617 10614 10610 10608 10606 10606 10606 10606 10607 10609
10907 10905 10902 10900 10899 10899 10896 10894 10893 10891 10889 10887 10886 10884 10883 10881 10878 10875 10873 10870 10868 10866 10863 10862 10859 10856 10852 10850 10847 10844 10840 10836 10831 10827 10822 10818 10813 10809 10804 10799 10794 10788 10780 10774 10770 10763 10756 10748 10740 10733 10726 10718 10710 10701 10690 10677 10666 10657 10648 10639 10630 10624 10619 10614 10611 10607 10604 10601 10599 10598 10597 10597 10598 10600
10900 10898 10895 10893 10892 10892 10890 10887 10886 10886 10883 10881 10880 10879 10877 10875 10872 10869 10867 10865 10863 10860 10858 10856 10854 10851 10848 10845 10842 10839 10835 10831 10826 10821 10817 10813 10808 10804 10799 10794 10789 10784 10777 10770 10765 10758 10750 10742 10733 10725 10718 10711 10703 10694 10685 10674 10662 10652 10643 10634 10625 10618 10613 10608 10605 10601 10598 10595 10593 10591 10589 10589 10589 10590
10893 10891 10888 10886 10884 10884 10883 10881 10880 10881 10878 10875 10873 10873 10871 10868 10866 10864 10861 10859 10857 10855 10853 10850 10848 10846 10843 10840 10837 10833 10829 10825 10821 10817 10813 10808 10804 10799 10794 10788 10783 10778 10772 10766 10761 10754 10746 10738 10729 10718 10710 10703 10696 10687 10678 10669 10658 10647 10638 10629 10621 10613 10607 10603 10599 10595 10592 10589 10587 10584 10583 10581 10581 10581
10885 10884 10881 10879 10877 10876 10875 10874 10874 10875 10874 10869 10867 10866 10865 10862 10861 10859 10856 10854 10852 10850 10848 10846 10843 10841 10838 10835 10831 10828 10823 10819 10815 10812 10808 10804 10800 10795 10790 10783 10778 10772 10766 10760 10755 10750 10742 10734 10725 10715 10704 10695 10687 10678 10669 10661 10653 10644 10635 10626 10617 10609 10602 10597 10593 10589 10586 10583 10580 10578 10576 10575 10574 10573
10877 10876 10875 10873 10870 10869 10868 10867 10867 10869 10867 10864 10862 10860 10859 10857 10855 10853 10852 10849 10847 10845 10843 10841 10838 10836 10833 10830 10826 10822 10818 10814 10811 10807 10803 10800 10796 10791 10786 10780 10774 10768 10762 10755 10749 10743 10737 10730 10721 10712 10701 10690 10679 10670 10662 10654 10646 10639 10632 10623 10614 10605 10598 10592 10587 10583 10580 10576 10574 10572 10570 10569 10567 10567
10869 10868 10868 10867 10864 10862 10862 10860 10860 10862 10860 10858 10857 10854 10853 10851 10849 10847 10846 10843 10841 10839 10838 10836 10833 10831 10828 10825 10820 10817 10813 10810 10806 10802 10799 10796 10791 10787 10782 10776 10770 10764 10757 10751 10745 10738 10732 10724 10715 10705 10696 10686 10675 10665 10657 10648 10640 10633 10627 10619 10610 10601 10593 10587 10582 10578 10574 10570 10568 10566 10565 10563 10561 10560
10862 10862 10862 10861 10858 10856 10856 10855 10854 10856 10855 10853 10852 10849 10847 10845 10843 10841 10840 10838 10836 10834 10833 10831 10828 10825 10823 10819 10815 10812 10808 10805 10801 10798 10794 10791 10787 10782 10777 10772 10766 10760 10753 10747 10741 10734 10727 10720 10711 10701 10690 10681 10672 10662 10654 10645 10636 10627 10620 10614 10606 10597 10589 10583 10577 10572 10568 10565 10562 10559 10558 10558 10556 10554
10856 10856 10856 10855 10852 10850 10851 10851 10850 10851 10850 10848 10846 10843 10841 10840 10838 10835 10834 10832 10830 10829 10827 10825 10823 10820 10817 10814 10810 10807 10804 10800 10797 10793 10790 10786 10782 10778 10773 10767 10761 10755 10749 10742 10736 10730 10723 10716 10708 10698 10688 10678 10668 10659 10651 10643 10633 10623 10615 10608 10601 10593 10585 10579 10573 10567 10563 10559 10556 10554 10552 10551 10550 10549
10851 10852 10851 10849 10846 10845 10846 10846 10844 10844 10844 10842 10840 10838 10836 10834 10832 10830 10828 10826 10824 10823 10821 10819 10817 10814 10811 10808 10805 10802 10799 10795 10792 10789 10785 10782 10778 10773 10768 10763 10757 10751 10745 10739 10732 10725 10718 10711 10704 10696 10687 10677 10667 10657 10648 10640 10631 10620 10610 10602 10596 10589 10582 10576 10570 10564 10559 10555 10551 10549 10547 10545 10544 10542
10846 10846 10845 10843 10841 10840 10841 10840 10838 10837 10837 10835 10834 10832 10830 10829 10827 10825 10823 10821 10818 10816 10814 10812 10809 10807 10805 10802 10800 10797 10794 10791 10788 10785 10781 10777 10773 10769 10764 10759 10753 10747 10740 10734 10728 10721 10714 10708 10701 10693 10685 10676 10666 10656 10646 10636 10627 10617 10606 10597 10590 10584 10577 10570 10565 10559 10555 10550 10547 10544 10541 10539 10538 10536
10839 10839 10838 10837 10837 10837 10836 10835 10833 10832 10831 10829 10827 10826 10824 10823 10822 10820 10818 10816 10812 10810 10808 10806 10803 10801 10799 10797 10795 10792 10789 10786 10783 10780 10777 10773 10768 10764 10760 10755 10750 10743 10737 10730 10724 10718 10711 10704 10697 10690 10683 10674 10665 10655 10645 10633 10623 10613 10603 10593 10585 10578 10571 10563 10557 10553 10548 10545 10542 10540 10537 10534 10531 10529
10832 10831 10830 10830 10830 10830 10829 10828 10827 10826 10825 10823 10821 10819 10818 10817 10816 10814 10812 10810 10806 10804 10802 10800 10798 10796 10794 10792 10790 10787 10785 10782 10779 10776 10772 10768 10764 10760 10756 10751 10747 10740 10733 10727 10720 10714 10707 10701 10693 10686 10679 10672 10663 10653 10643 10632 10620 10609 10599 10590 10582 10574 10567 10559 10552 10546 10541 10537 10535 10534 10532 10529 10526 10523
10826 10825 10824 10824 10823 10822 10822 10822 10821 10820 10819 10817 10814 10813 10812 10812 10810 10808 10807 10805 10802 10799 10798 10796 10794 10791 10789 10788 10786 10783 10780 10777 10774 10771 10768 10764 10760 10755 10751 10748 10743 10737 10730 10723 10717 10710 10704 10697 10690 10682 10675 10668 10660 10651 10642 10631 10618 10606 10595 10586 10577 10570 10564 10557 10549 10541 10535 10530 10527 10526 10526 10524 10520 10517
10823 10823 10820 10818 10817 10816 10815 10815 10815 10814 10813 10811 10808 10807 10806 10806 10805 10803 10802 10800 10797 10795 10793 10791 10789 10787 10785 10783 10781 10778 10775 10772 10769 10766 10763 10759 10755 10751 10747 10743 10739 10733 10727 10720 10714 10707 10701 10693 10686 10678 10670 10664 10657 10649 10639 10628 10616 10604 10593 10583 10573 10564 10559 10553 10547 10539 10532 10525 10520 10519 10520 10518 10515 10511
10819 10819 10816 10811 10809 10808 10808 10807 10807 10806 10805 10804 10803 10801 10799 10799 10798 10797 10796 10795 10793 10791 10788 10785 10783 10782 10780 10778 10775 10773 10770 10767 10765 10762 10758 10755 10751 10747 10743 10739 10734 10728 10722 10715 10710 10704 10697 10689 10681 10673 10666 10659 10653 10647 10639 10628 10615 10603 10592 10581 10570 10560 10553 10548 10543 10538 10531 10525 10517 10513 10514 10514 10511 10506
10807 10809 10807 10803 10800 10800 10800 10800 10800 10799 10797 10797 10796 10794 10793 10793 10792 10791 10790 10789 10787 10785 10782 10780 10778 10776 10774 10772 10770 10767 10765 10762 10760 10757 10753 10750 10747 10743 10739 10735 10730 10724 10716 10710 10704 10698 10691 10684 10677 10669 10662 10654 10647 10641 10635 10626 10616 10603 10591 10580 10569 10558 10549 10543 10539 10534 10529 10524 10517 10511 10508 10508 10507 10503
10798 10799 10797 10795 10794 10793 10794 10794 10794 10794 10793 10791 10789 10788 10786 10786 10786 10785 10784 10782 10781 10778 10776 10775 10773 10770 10769 10767 10764 10762 10760 10757 10754 10751 10748 10745 10742 10738 10734 10730 10725 10719 10711 10704 10698 10691 10684 10678 10671 10664 10657 10650 10643 10637 10630 10622 10613 10603 10592 10580 10569 10557 10546 10538 10533 10529 10525 10521 10517 10510 10505 10503 10503 10500
10792 10791 10789 10789 10790 10790 10789 10788 10788 10788 10788 10786 10784 10782 10781 10780 10780 10780 10778 10776 10774 10772 10770 10769 10767 10765 10763 10761 10759 10757 10754 10751 10748 10745 10742 10740 10737 10733 10729 10725 10720 10714 10708 10700 10693 10686 10679 10672 10665 10659 10652 10645 10639 10633 10626 10619 10610 10599 10588 10578 10568 10557 10546 10535 10528 10524 10520 10516 10514 10509 10503 10499 10498 10497
10787 10784 10782 10783 10785 10785 10784 10783 10782 10783 10783 10781 10778 10776 10775 10773 10772 10772 10772 10770 10768 10767 10765 10763 10762 10760 10758 10756 10753 10751 10748 10745 10742 10740 10737 10734 10731 10727 10723 10719 10714 10709 10703 10697 10689 10682 10674 10667 10660 10654 10647 10640 10633 10626 10620 10614 10606 10596 10585 10574 10565 10557 10547 10536 10527 10520 10515 10511 10509 10507 10502 10497 10494 10493
10780 10777 10775 10776 10777 10777 10777 10775 10774 10775 10776 10775 10773 10771 10769 10767 10766 10765 10764 10763 10762 10761 10759 10758 10756 10754 10752 10750 10747 10744 10742 10739 10737 10734 10731 10728 10725 10721 10717 10713 10708 10703 10698 10692 10685 10677 10669 10662 10656 10649 10642 10636 10629 10621 10614 10607 10600 10591 10581 10571 10562 10555 10547 10538 10527 10519 10512 10507 10504 10503 10501 10497 10492 10490
10772 10768 10767 10769 10771 10770 10769 10767 10766 10767 10768 10767 10766 10765 10764 10762 10760 10759 10757 10756 10755 10754 10753 10751 10750 10748 10746 10743 10741 10738 10735 10733 10731 10729 10726 10722 10719 10715 10711 10707 10703 10698 10693 10687 10680 10672 10664 10658 10652 10645 10638 10632 10625 10619 10611 10603 10594 10585 10576 10567 10558 10550 10545 10537 10528 10519 10512 10506 10501 10499 10498 10496 10492 10489
10764 10761 10762 10764 10764 10763 10762 10761 10761 10761 10760 10758 10757 10757 10757 10756 10754 10752 10750 10748 10747 10747 10746 10745 10743 10741 10739 10737 10734 10732 10730 10728 10726 10723 10720 10716 10712 10708 10705 10701 10697 10692 10688 10682 10675 10668 10661 10654 10647 10641 10635 10628 10622 10615 10609 10601 10592 10582 10574 10566 10557 10548 10542 10537 10530 10522 10513 10506 10501 10497 10494 10493 10491 10488
10755 10755 10757 10759 10759 10757 10755 10755 10754 10753 10752 10750 10750 10750 10749 10748 10746 10745 10743 10742 10741 10741 10740 10738 10737 10735 10732 10730 10728 10726 10725 10722 10719 10716 10713 10710 10706 10702 10698 10694 10690 10686 10681 10676 10670 10663 10657 10650 10644 10637 10631 10624 10618 10612 10605 10598 10589 10580 10572 10564 10556 10547 10539 10533 10527 10521 10515 10508 10502 10497 10493 10490 10489 10487
10750 10750 10752 10754 10754 10752 10749 10747 10746 10744 10743 10743 10743 10742 10741 10740 10739 10737 10736 10735 10735 10734 10733 10731 10730 10728 10726 10724 10722 10720 10718 10715 10712 10710 10707 10703 10699 10695 10691 10688 10684 10679 10674 10669 10664 10658 10652 10645 10639 10633 10627 10620 10613 10607 10600 10593 10586 10578 10569 10561 10552 10544 10537 10531 10525 10518 10512 10507 10502 10498 10493 10489 10486 10484
10746 10747 10747 10747 10747 10744 10740 10737 10736 10735 10734 10735 10735 10734 10733 10732 10731 10730 10729 10728 10727 10727 10725 10724 10723 10721 10719 10716 10715 10713 10711 10708 10706 10703 10699 10695 10692 10688 10684 10680 10676 10672 10667 10662 10658 10653 10647 10641 10635 10628 10622 10615 10609 10602 10595 10589 10582 10574 10566 10558 10550 10541 10534 10528 10523 10517 10511 10505 10500 10496 10493 10489 10486 10483
10737 10739 10739 10737 10736 10733 10730 10729 10728 10726 10725 10726 10726 10726 10725 10725 10724 10723 10722 10721 10720 10719 10718 10717 10715 10714 10712 10709 10707 10705 10703 10701 10698 10695 10691 10688 10684 10681 10677 10672 10668 10664 10660 10655 10651 10647 10641 10635 10630 10623 10617 10611 10604 10597 10591 10584 10578 10571 10562 10554 10547 10539 10530 10524 10518 10514 10509 10504 10499 10494 10491 10488 10485 10482
10730 10730 10729 10727 10725 10723 10722 10722 10721 10719 10718 10719 10719 10718 10718 10717 10716 10716 10715 10714 10713 10712 10710 10709 10708 10706 10704 10702 10699 10698 10696 10693 10690 10687 10684 10680 10676 10673 10669 10665 10660 10656 10652 10648 10644 10640 10635 10629 10624 10618 10612 10606 10599 10592 10586 10579 10573 10567 10559 10551 10544 10537 10529 10522 10515 10510 10505 10501 10497 10493 10490 10487 10484 10481